GW1266 Weather Reports


time (UTC)temp
C
wind
direction
speed
KPH
gust
KPH
rain 1hr
cm
rain 24hr
cm
rain mn
cm
humidity
%
barometer
mb
20260504021034 18 268 9.7 25.7 0.00 0.15 0.00 57 1011.8
20260504020027 18 304 8.0 17.7 0.00 0.15 0.00 59 1011.9
20260504015043 17 299 9.7 27.4 0.00 0.15 0.00 60 1012.0
20260504014021 18 290 11.3 29.0 0.00 0.15 0.00 59 1012.2
20260504013018 17 304 11.3 29.0 0.00 0.18 0.00 59 1012.1
20260504012015 17 313 12.9 33.8 0.00 0.20 0.00 60 1012.2
20260504011033 17 307 8.0 27.4 0.00 0.25 0.00 61 1012.1
20260504010031 17 314 9.7 22.5 0.00 0.25 0.00 62 1012.2
20260504005034 17 306 8.0 24.1 0.00 0.28 0.00 62 1012.3
20260504004025 17 303 8.0 20.9 0.00 0.33 0.00 63 1012.3
20260504003023 17 276 8.0 29.0 0.00 0.38 0.00 64 1012.2
20260504002022 17 300 8.0 20.9 0.00 0.43 0.00 65 1012.1
20260504001019 16 279 8.0 16.1 0.00 0.43 0.00 65 1012.1
20260504000017 16 308 11.3 25.7 0.00 0.48 0.48 65 1012.2
20260503235035 16 309 6.4 20.9 0.00 0.48 0.48 66 1012.3
20260503234051 16 309 8.0 17.7 0.00 0.48 0.48 66 1012.3
20260503233028 15 272 8.0 20.9 0.00 0.48 0.48 67 1012.4
20260503232027 15 303 6.4 14.5 0.00 0.48 0.48 68 1012.5
20260503231024 15 312 4.8 16.1 0.00 0.48 0.48 68 1012.4
20260503230041 15 291 3.2 14.5 0.00 0.48 0.48 69 1012.4
20260503225019 15 288 6.4 14.5 0.00 0.48 0.48 70 1012.5
20260503224037 15 309 4.8 14.5 0.00 0.48 0.48 72 1012.4
20260503223035 14 275 1.6 4.8 0.00 0.48 0.48 73 1012.6
20260503222031 14 289 3.2 14.5 0.00 0.48 0.48 74 1012.6
20260503221029 14 287 1.6 4.8 0.00 0.48 0.48 75 1012.6
20260503220027 13 145 1.6 4.8 0.00 0.48 0.48 75 1012.5
20260503215024 13 321 0.0 4.8 0.00 0.48 0.48 75 1012.8
20260503214103 13 319 0.0 3.2 0.00 0.48 0.48 75 1012.6
20260503213019 13 256 0.0 6.4 0.00 0.48 0.48 75 1012.6
20260503212017 13 206 0.0 4.8 0.00 0.48 0.48 76 1012.4
20260503211033 13 238 0.0 4.8 0.00 0.48 0.48 75 1012.5
20260503210031 13 309 0.0 1.6 0.00 0.48 0.48 76 1012.5
20260503205029 13 254 0.0 6.4 0.00 0.48 0.48 77 1012.4
20260503204026 13 307 0.0 6.4 0.00 0.48 0.48 78 1012.4
20260503203025 13 79 0.0 3.2 0.00 0.48 0.48 79 1012.2
20260503202022 13 0.0 0.0 0.00 0.48 0.48 79 1012.2
20260503201018 13 0.0 0.0 0.00 0.48 0.48 78 1012.2
20260503200016 13 0.0 0.0 0.00 0.48 0.48 78 1012.3
20260503195034 13 0.0 0.0 0.00 0.48 0.48 78 1012.3
20260503194052 13 316 0.0 4.8 0.00 0.48 0.48 78 1012.3
20260503193030 13 0.0 0.0 0.00 0.48 0.48 78 1012.4
20260503192027 13 0.0 0.0 0.00 0.48 0.48 78 1012.5
20260503191049 13 0.0 0.0 0.00 0.48 0.48 78 1012.6
20260503190022 13 0.0 0.0 0.00 0.48 0.48 78 1012.6
20260503185024 13 290 0.0 3.2 0.00 0.48 0.48 78 1012.7
20260503184020 13 130 0.0 4.8 0.00 0.48 0.48 79 1012.6
20260503183038 13 167 0.0 3.2 0.00 0.48 0.48 79 1012.6
20260503182036 13 11 0.0 3.2 0.00 0.48 0.48 80 1012.7
20260503181034 13 104 0.0 1.6 0.00 0.48 0.48 80 1012.8
20260503180028 13 120 0.0 1.6 0.00 0.48 0.48 80 1012.9
20260503175025 13 0.0 0.0 0.00 0.48 0.48 80 1012.9
20260503174023 13 186 0.0 1.6 0.00 0.48 0.48 79 1013.1
20260503173020 13 202 0.0 4.8 0.00 0.48 0.48 79 1013.1
20260503172021 13 267 0.0 1.6 0.00 0.48 0.48 79 1013.1
20260503131016 16 297 3.2 11.3 0.00 0.48 0.48 73 1013.8
20260503081025 17 320 1.6 4.8 0.00 0.48 0.48 69 1012.5
20260503072033 18 316 1.6 3.2 0.00 0.48 0.48 67 1012.3
20260503071031 18 323 1.6 6.4 0.00 0.48 0.48 70 1012.2
20260503055031 18 319 1.6 9.7 0.05 0.48 0.48 78 1011.8
20260503054028 18 327 4.8 12.9 0.05 0.48 0.48 78 1011.8
20260503053026 18 324 4.8 12.9 0.08 0.48 0.48 79 1011.7
20260503052043 18 329 3.2 11.3 0.05 0.43 0.43 80 1012.0
20260503051020 18 0.0 0.0 0.08 0.43 0.43 80 1011.7
20260503050017 18 313 0.0 3.2 0.10 0.43 0.43 80 1011.8
20260503045041 18 314 0.0 3.2 0.10 0.43 0.43 80 1011.5
20260503044033 18 306 1.6 3.2 0.10 0.43 0.43 80 1011.6
20260503043030 19 315 1.6 14.5 0.08 0.38 0.38 79 1011.5
20260503042028 20 309 3.2 11.3 0.08 0.38 0.38 78 1011.2
20260503041046 20 304 4.8 14.5 0.03 0.33 0.33 76 1011.2
20260503040024 20 304 4.8 17.7 0.00 0.33 0.33 74 1011.1
20260503035021 21 294 4.8 12.9 0.00 0.33 0.33 74 1011.1
20260503034019 20 304 4.8 12.9 0.00 0.33 0.33 74 1011.1
20260503033016 20 312 4.8 20.9 0.00 0.33 0.33 74 1011.3
20260503032053 21 301 3.2 6.4 0.00 0.33 0.33 74 1011.4
20260503031031 21 315 8.0 25.7 0.00 0.33 0.33 73 1011.3
20260503030028 21 298 11.3 29.0 0.00 0.33 0.33 75 1011.5
20260503025026 20 292 8.0 30.6 0.00 0.33 0.33 78 1011.6
20260503024024 20 312 6.4 20.9 0.00 0.33 0.33 81 1011.5
20260503023021 20 261 4.8 17.7 0.03 0.33 0.33 83 1011.3
20260503022040 19 263 4.8 16.1 0.05 0.33 0.33 84 1011.5